Location: Invercargill
(46.4000°S, 168.3500°E)
Time: 19:46:16
(UTC+12:00)

Cosmos 1437 Rocket - Pass Details

Date: 14 May 2021
Orbit: 501 x 565 km, 81.2° (Epoch: 14 June)

Event Time Altitude Azimuth Distance (km) Brightness Sun altitude
Rises 18:20:38 0° 181° (S) 2,653 6.1 -9.7°
Reaches altitude 10° 18:23:02 10° 169° (SSE) 1,754 5.1 -10.1°
Maximum altitude 18:26:20 27° 109° (ESE) 1,014 3.6 -10.6°
Drops below altitude 10° 18:29:37 10° 49° (NE) 1,731 5.0 -11.2°
Sets 18:31:58 0° 37° (NE) 2,610 6.1 -11.6°
